Weather History for Luverne, MN

Change the Weather History Date:

Tuesday, October 9, 2012

  Actual Average (KFSD) Record (KFSD)
Temperature  
Mean Temperature 43 °F 51 °F  
Max Temperature 51 °F 63 °F 89 °F (1980)
Min Temperature 33 °F 39 °F 18 °F (1906)
Degree Days  
Heating Degree Days 22 14  
Month to date heating degree days 115  
Since 1 July heating degree days 319  
Cooling Degree Days 0 0  
Month to date cooling degree days 0  
Year to date cooling degree days 685  
Moisture  
Dew Point 30 °F    
Average Humidity 57    
Maximum Humidity 87    
Minimum Humidity 35    
Precipitation  
Precipitation 0.00 in 0.08 in 4.54 in (1973)
Month to date precipitation 0.77  
Year to date precipitation 22.93  
Snow  
Snow 0.00 in 0.00 in 4.50 in (1970)
Month to date snowfall 0.1  
Since 1 July snowfall 0.1  
Since 1 September snowfall 0.1  
Snow Depth -    
Sea Level Pressure  
Sea Level Pressure 29.92 in    
Wind  
Wind Speed 10 mph (WNW)    
Max Wind Speed 29 mph    
Max Gust Speed 39 mph    
Visibility 10 miles    
Events Rain    
T = Trace of Precipitation, MM = Missing Value Source: NWS Daily Summary

Daily Weather History Graph

Daily Weather History Graph

Search for Another Location

Airport:

Trip Planner

Search our weather history database for the weather conditions in past years. The results will help you decide how hot, cold, wet, or windy it might be!

Date:

Astronomy

Oct. 09, 2012 Rise Set
Actual Time 7:32 AM CDT 6:50 PM CDT
Civil Twilight 7:03 AM CDT 7:19 PM CDT
Nautical Twilight 6:30 AM CDT 7:52 PM CDT
Astronomical Twilight 5:57 AM CDT 8:25 PM CDT
Moon 12:59 AM CDT (10/9) 3:28 PM CDT (10/9)
Length of Visible Light 12h 15m
Length of Day
11h 18m
Last Quarter, 36% of the Moon is Illuminated
Oct 9
Last Quarter
Oct 15
New
Oct 21
First Quarter
Oct 29
Full
Nov 6
Last Quarter

Hourly Weather History & Observations

Time (CDT) Temp. Windchill Dew Point Humidity Pressure Visibility Wind Dir Wind Speed Gust Speed Precip Events Conditions
12:14 AM 50.0 °F - 42.8 °F 76% 29.78 in 10.0 mi Calm Calm - N/A   Overcast
12:35 AM 50.0 °F - 42.8 °F 76% 29.78 in 10.0 mi West 8.1 mph - N/A   Overcast
12:54 AM 51.8 °F - 42.8 °F 71% 29.79 in 10.0 mi West 6.9 mph - N/A Rain Rain
1:14 AM 50.0 °F - 42.8 °F 76% 29.79 in 10.0 mi West 6.9 mph - N/A   Overcast
1:54 AM 50.0 °F - 42.8 °F 76% 29.80 in 10.0 mi West 8.1 mph - N/A   Drizzle
2:14 AM 50.0 °F - 42.8 °F 76% 29.80 in 10.0 mi West 5.8 mph - N/A   Light Drizzle
2:35 AM 50.0 °F - 42.8 °F 76% 29.79 in 10.0 mi West 3.5 mph - N/A   Light Drizzle
3:14 AM 48.2 °F - 42.8 °F 82% 29.78 in 10.0 mi WSW 5.8 mph - N/A   Light Drizzle
3:34 AM 46.4 °F 43.5 °F 42.8 °F 87% 29.78 in 10.0 mi WSW 5.8 mph - N/A   Light Drizzle
4:14 AM 48.2 °F - 41.0 °F 76% 29.79 in 10.0 mi West 6.9 mph - N/A   Mostly Cloudy
4:34 AM 48.2 °F - 41.0 °F 76% 29.79 in 10.0 mi West 6.9 mph - N/A   Mostly Cloudy
4:54 AM 46.4 °F 43.5 °F 39.2 °F 76% 29.80 in 10.0 mi West 5.8 mph - N/A   Mostly Cloudy
5:15 AM 48.2 °F - 41.0 °F 76% 29.80 in 10.0 mi West 6.9 mph - N/A   Overcast
5:34 AM 48.2 °F - 41.0 °F 76% 29.81 in 10.0 mi West 8.1 mph - N/A   Overcast
5:54 AM 48.2 °F - 41.0 °F 76% 29.81 in 10.0 mi WNW 12.7 mph 18.4 mph N/A   Overcast
6:15 AM 48.2 °F - 39.2 °F 71% 29.82 in 10.0 mi NW 11.5 mph 19.6 mph N/A   Overcast
6:34 AM 48.2 °F - 39.2 °F 71% 29.83 in 10.0 mi NW 8.1 mph - N/A   Overcast
6:54 AM 46.4 °F 44.3 °F 37.4 °F 71% 29.84 in 10.0 mi NNW 4.6 mph - N/A   Overcast
7:15 AM 46.4 °F 43.5 °F 37.4 °F 71% 29.85 in 10.0 mi NW 5.8 mph - N/A   Overcast
7:34 AM 44.6 °F 41.4 °F 37.4 °F 76% 29.86 in 10.0 mi NW 5.8 mph - N/A   Overcast
7:54 AM 44.6 °F 40.7 °F 37.4 °F 76% 29.87 in 10.0 mi NW 6.9 mph - N/A   Overcast
8:14 AM 44.6 °F 40.2 °F 37.4 °F 76% 29.87 in 10.0 mi WNW 8.1 mph - N/A   Mostly Cloudy
8:34 AM 44.6 °F 40.7 °F 35.6 °F 71% 29.87 in 10.0 mi WNW 6.9 mph - N/A   Overcast
8:54 AM 44.6 °F 38.4 °F 35.6 °F 71% 29.88 in 10.0 mi WNW 12.7 mph 19.6 mph N/A   Mostly Cloudy
9:14 AM 44.6 °F 38.1 °F 32.0 °F 61% 29.89 in 10.0 mi NW 13.8 mph - N/A   Overcast
9:34 AM 44.6 °F 38.4 °F 32.0 °F 61% 29.89 in 10.0 mi NW 12.7 mph 18.4 mph N/A   Overcast
9:54 AM 44.6 °F 38.4 °F 32.0 °F 61% 29.90 in 10.0 mi WNW 12.7 mph 20.7 mph N/A   Scattered Clouds
10:14 AM 46.4 °F 38.1 °F 30.2 °F 53% 29.90 in 10.0 mi WNW 24.2 mph 33.4 mph N/A   Scattered Clouds
10:34 AM 46.4 °F 38.3 °F 26.6 °F 46% 29.91 in 10.0 mi NW 23.0 mph 29.9 mph N/A   Scattered Clouds
10:55 AM 46.4 °F 38.5 °F 24.8 °F 43% 29.92 in 10.0 mi NW 21.9 mph 26.5 mph N/A   Clear
11:14 AM 44.6 °F 35.9 °F 23.0 °F 43% 29.92 in 10.0 mi WNW 23.0 mph 29.9 mph N/A   Clear
11:34 AM 48.2 °F - 23.0 °F 37% 29.91 in 10.0 mi WNW 21.9 mph 31.1 mph N/A   Clear
11:54 AM 50.0 °F - 23.0 °F 35% 29.91 in 10.0 mi WNW 23.0 mph 34.5 mph N/A   Clear
12:14 PM 50.0 °F - 23.0 °F 35% 29.90 in 10.0 mi WNW 27.6 mph 36.8 mph N/A   Clear
12:34 PM 48.2 °F - 23.0 °F 37% 29.91 in 10.0 mi WNW 28.8 mph 34.5 mph N/A   Clear
12:54 PM 48.2 °F - 23.0 °F 37% 29.91 in 10.0 mi NW 25.3 mph 33.4 mph N/A   Clear
1:14 PM 50.0 °F - 24.8 °F 37% 29.91 in 10.0 mi NW 24.2 mph 39.1 mph N/A   Scattered Clouds
1:34 PM 48.2 °F - 23.0 °F 37% 29.92 in 10.0 mi NW 24.2 mph 33.4 mph N/A   Scattered Clouds
1:54 PM 50.0 °F - 24.8 °F 37% 29.92 in 10.0 mi NW 21.9 mph 32.2 mph N/A   Mostly Cloudy
2:14 PM 48.2 °F - 26.6 °F 43% 29.93 in 10.0 mi NW 20.7 mph 31.1 mph N/A   Mostly Cloudy
2:35 PM 46.4 °F 38.7 °F 26.6 °F 46% 29.93 in 10.0 mi NW 20.7 mph 31.1 mph N/A   Overcast
2:54 PM 46.4 °F 39.2 °F 26.6 °F 46% 29.94 in 10.0 mi NNW 18.4 mph 26.5 mph N/A   Overcast
3:14 PM 44.6 °F 36.1 °F 26.6 °F 49% 29.95 in 10.0 mi NW 21.9 mph 29.9 mph N/A   Overcast
3:34 PM 44.6 °F 36.4 °F 28.4 °F 53% 29.96 in 10.0 mi NW 20.7 mph 28.8 mph N/A   Overcast
3:54 PM 44.6 °F 37.4 °F 28.4 °F 53% 29.97 in 10.0 mi NNW 16.1 mph 27.6 mph N/A   Overcast
4:15 PM 44.6 °F 36.6 °F 26.6 °F 49% 29.97 in 10.0 mi NNW 19.6 mph 27.6 mph N/A   Overcast
4:34 PM 44.6 °F 37.4 °F 26.6 °F 49% 29.98 in 10.0 mi NNW 16.1 mph 24.2 mph N/A   Overcast
4:54 PM 44.6 °F 36.9 °F 26.6 °F 49% 29.99 in 10.0 mi NNW 18.4 mph 26.5 mph N/A   Overcast
5:14 PM 44.6 °F 37.8 °F 26.6 °F 49% 29.99 in 10.0 mi NNW 15.0 mph 24.2 mph N/A   Overcast
5:34 PM 44.6 °F 37.8 °F 26.6 °F 49% 30.00 in 10.0 mi NW 15.0 mph 23.0 mph N/A   Overcast
5:54 PM 44.6 °F 38.1 °F 26.6 °F 49% 30.00 in 10.0 mi NNW 13.8 mph 21.9 mph N/A   Overcast
6:14 PM 44.6 °F 38.1 °F 26.6 °F 49% 30.01 in 10.0 mi NW 13.8 mph 21.9 mph N/A   Overcast
6:34 PM 44.6 °F 38.1 °F 26.6 °F 49% 30.01 in 10.0 mi NW 13.8 mph 20.7 mph N/A   Overcast
6:55 PM 44.6 °F 38.8 °F 24.8 °F 46% 30.02 in 10.0 mi NNW 11.5 mph 19.6 mph N/A   Overcast
7:14 PM 42.8 °F 37.5 °F 24.8 °F 49% 30.03 in 10.0 mi NNW 9.2 mph - N/A   Overcast
7:34 PM 42.8 °F 36.6 °F 23.0 °F 46% 30.03 in 10.0 mi NNW 11.5 mph 17.3 mph N/A   Overcast
7:55 PM 42.8 °F 38.0 °F 23.0 °F 46% 30.04 in 10.0 mi NNW 8.1 mph - N/A   Overcast
8:14 PM 42.8 °F 38.6 °F 23.0 °F 46% 30.05 in 10.0 mi NNW 6.9 mph - N/A   Overcast
8:34 PM 42.8 °F 39.3 °F 23.0 °F 46% 30.05 in 10.0 mi NNW 5.8 mph - N/A   Overcast
8:55 PM 42.8 °F 39.3 °F 23.0 °F 46% 30.05 in 10.0 mi NNW 5.8 mph - N/A   Overcast
9:14 PM 42.8 °F 40.1 °F 23.0 °F 46% 30.06 in 10.0 mi NW 4.6 mph - N/A   Overcast
9:34 PM 41.0 °F 37.1 °F 23.0 °F 49% 30.06 in 10.0 mi WNW 5.8 mph - N/A   Overcast
9:55 PM 41.0 °F 38.0 °F 23.0 °F 49% 30.07 in 10.0 mi WNW 4.6 mph - N/A   Overcast
10:14 PM 41.0 °F 38.0 °F 23.0 °F 49% 30.07 in 10.0 mi NW 4.6 mph - N/A   Overcast
10:34 PM 37.4 °F 32.8 °F 23.0 °F 56% 30.08 in 10.0 mi WNW 5.8 mph - N/A   Overcast
10:55 PM 37.4 °F 32.1 °F 23.0 °F 56% 30.09 in 10.0 mi West 6.9 mph - N/A   Overcast
11:14 PM 37.4 °F 32.1 °F 23.0 °F 56% 30.09 in 10.0 mi West 6.9 mph - N/A   Mostly Cloudy
11:34 PM 35.6 °F 29.2 °F 23.0 °F 60% 30.08 in 10.0 mi West 8.1 mph - N/A   Scattered Clouds
11:55 PM 33.8 °F 25.8 °F 23.0 °F 65% 30.08 in 10.0 mi West 10.4 mph - N/A   Clear